Notices

What's New in latest Release from April 7th, 2021:

- Updated Glossary, including Speed of Maximum Gust, and Total Hourly Precipitation

- Updated national and regional climate services offices contacts and prices information

- Addition of station inventory lists for 1981-2010, 1971-2000, and 1961-1990 Normals.

If you haven't already, please take our survey and provide feedback about our website: https://eccc.sondage-survey.ca/f/LanguageSelection.aspx?s=442ca660-fcf1-47c0-95a9-59707d6fd709

Hourly Data Report for January 29, 2021

SHEARWATER RCS
NOVA SCOTIA
Current Station Operator: ECCC - MSC

44°37'47.000" N
63°30'48.000" W
24.00 m
8205092
71264
AAW

Download Data

Hourly Data (January 2021)
Hourly Data Report for January 29, 2021
TIME
LST
Temp Definition
°C
Dew Point Definition
°C
Rel Hum Definition
%
Precip. Amount Definition
mm

Wind Dir Definition
10's deg

Wind Spd Definition
km/h
Visibility Definition
km
Stn Press Definition
kPa
Hmdx Definition


Wind Chill Definition


Weather Definition


00:00 -3.4 -8.3 69 0.0 5 15   100.59   -9 LegendNANA
01:00 -3.5 -8.4 69 0.0 4 12   100.50   -8 LegendNANA
02:00 -3.6 -8.7 68 0.0 5 10   100.44   -8 LegendNANA
03:00 -3.6 -8.6 68 0.0 4 12   100.37   -8 LegendNANA
04:00 -3.9 -8.6 70 0.0 2 14   100.32   -9 LegendNANA
05:00 -4.2 -9.3 68 0.0 2 10   100.31   -8 LegendNANA
06:00 -4.6 -8.7 73 0.0 3 13   100.24   -10 LegendNANA
07:00 -5.0 -8.2 78 0.0 36 12   100.24   -10 LegendNANA
08:00 -5.3 -8.7 77 0.0 1 16   100.17   -11 LegendNANA
09:00 -4.9 -9.8 68 0.0 3 17   100.16   -11 LegendNANA
10:00 -4.0 -10.1 62 0.0 2 18   100.12   -10 LegendNANA
11:00 -3.4 -10.0 60 0.0 2 25   100.09   -10 LegendNANA
12:00 -2.8 -9.3 61 0.0 36 23   99.99   -9 LegendNANA
13:00 -2.5 -9.5 59 0.0 36 28   99.93   -10 LegendNANA
14:00 -2.6 -8.0 67 0.0 35 23   99.90   -9 LegendNANA
15:00 -2.5 -8.3 64 0.0 36 24   99.94   -9 LegendNANA
16:00 -2.6 -8.1 65 0.0 1 24   99.97   -9 LegendNANA
17:00 -2.6 -7.8 67 0.0 1 20   100.04   -9 LegendNANA
18:00 -2.7 -6.9 73 0.0 36 22   100.10   -9 LegendNANA
19:00 -2.6 -6.5 74 0.0 35 20   100.15   -9 LegendNANA
20:00 -2.7 -6.2 77 0.0 35 22   100.19   -9 LegendNANA
21:00 -2.7 -5.8 79 0.0 34 19   100.20   -8 LegendNANA
22:00 -2.8 -5.5 82 0.0 34 22   100.25   -9 LegendNANA
23:00 -2.8 -5.8 80 0.0 34 23   100.29   -9 LegendNANA

Notes on Data Quality.

Legend

  • E = Estimated
  • M = Missing
  • NA = Not Available*
  • [empty] = Indicates an unobserved value
Date modified: